This demonstration page uses our WeatherBlox Daily Observations layout. Learn more.

Left ArrowRight Arrow

39.08367, -84.50855

Hourly Observations for November 15, 2015

Temp ( °F °C ) Dew Point ( °F °C ) Humidity (%) Winds ( mph kmh ) Pressure ( in mb ) Visibility ( mi km ) Precip ( " mm )
12:53 am 00:53 Clear 33 0.6 31 -0.6 92 92 Calm 30.40 1030 10 16 0.00 0.00
1:53 am 01:53 Clear 32 0 31 -0.6 96 96 Calm 30.41 1030 10 16 0.00 0.00
2:53 am 02:53 Clear 31 -0.6 31 -0.6 100 100 Calm 30.41 1030 10 16 0.00 0.00
3:53 am 03:53 Clear 32 0 31 -0.6 96 96 Calm 30.41 1030 10 16 0.00 0.00
4:53 am 04:53 Clear 31 -0.6 31 -0.6 100 100 Calm 30.42 1030 10 16 0.00 0.00
5:53 am 05:53 Clear 30 -1.1 30 -1.1 100 100 Calm 30.43 1031 9 14 0.00 0.00
6:53 am 06:53 Clear 30 -1.1 30 -1.1 100 100 Calm 30.44 1031 10 16 0.00 0.00
7:53 am 07:53 Sunny 31 -0.6 31 -0.6 100 100 Calm 30.46 1031 10 16 0.00 0.00
8:53 am 08:53 Sunny 37 2.8 35 1.7 93 93 Calm 30.46 1031 10 16 0.00 0.00
9:53 am 09:53 Sunny 48 8.9 39 3.9 71 71 Calm 30.45 1031 10 16 0.00 0.00
10:53 am 10:53 Sunny 54 12.2 37 2.8 53 53 S 5 7 30.43 1031 10 16 0.00 0.00
11:53 am 11:53 Sunny 59 15 35 1.7 41 41 SSW 10 17 30.40 1030 10 16 0.00 0.00
12:53 pm 12:53 Sunny 62 16.7 37 2.8 40 40 WSW 8 13 30.38 1029 10 16 0.00 0.00
1:53 pm 13:53 Sunny 64 17.8 38 3.3 38 38 VRB 6 9 30.35 1028 10 16 0.00 0.00
2:53 pm 14:53 Sunny 64 17.8 36 2.2 35 35 SW 7 11 30.33 1027 10 16 0.00 0.00
3:53 pm 15:53 Sunny 64 17.8 36 2.2 35 35 SSW 6 9 30.32 1027 10 16 0.00 0.00
4:53 pm 16:53 Sunny 59 15 35 1.7 41 41 SSW 7 11 30.32 1027 10 16 0.00 0.00
5:53 pm 17:53 Clear 50 10 36 2.2 59 59 Calm 30.32 1027 10 16 0.00 0.00
6:53 pm 18:53 Clear 45 7.2 37 2.8 74 74 Calm 30.33 1027 10 16 0.00 0.00
7:53 pm 19:53 Clear 41 5 37 2.8 86 86 Calm 30.33 1027 10 16 0.00 0.00
8:53 pm 20:53 Clear 40 4.4 37 2.8 89 89 Calm 30.34 1027 10 16 0.00 0.00
9:53 pm 21:53 Clear 38 3.3 36 2.2 93 93 Calm 30.33 1027 10 16 0.00 0.00
10:53 pm 22:53 Clear 35 1.7 35 1.7 100 100 Calm 30.33 1027 10 16 0.00 0.00
11:53 pm 23:53 Clear 36 2.2 35 1.7 97 97 Calm 30.32 1027 10 16 0.00 0.00

Powered by AerisWeather